Hauptseite
METAR-TAF:

METAR-TAF

Flughäfen :

Cape May County Airport

Wildwood, New Jersey, Vereinigte Staaten

Breite: 39-01N, Länge: 074-55W, Höhe: 7 m

Beobachtung

Neuester Wetterbericht von vor 56 Minuten, um 03:56 UTC
Wind 7 kt aus Nordwest
Temperatur 1°C
Luftfeuchtigkeit 47%
Luftdruck 1020 hPa
Sichtweite: 16.1 km
Himmel klar

METAR: KWWD 210356Z AUTO 32007KT 10SM CLR 01/M09 A3011 RMK AO2 SLP197 T00061089 FZRANO $

Zeit: 23:52 (04:52 UTC)


TAF: fehlend

Wetterbeobachtungen und Prognosen von mehr als 4000 Flughäfen (METAR und TAF Bericht).

Die verfügbaren Stationen werden durch gelbe und rote Markierungen auf der Karte dargestellt.

Führen Sie die Maus auf sie, um den Namen der Station zu sehen.

Darauf klicken, um die Beobachtung von Wetterbeobachtungen und Prognosen zu sehen.

Um die Karte zu ändern : klicken Sie auf den grünen Tasten mit einem schwarzen Kreuz Zum Vergrößern, auf den grünen Button mit einem Gedankenstrich zu verkleinern, oder auf die grünen Pfeile für benachbarte Karten.


METAR-TAF: